Regional Weather Roundup
Issued by NWS

Home | Current Version | Previous Version | Text Only | Print | Product List | Glossary Off
Versions: 1 2 3 4 5 6 7 8 9 10 11 12 13 14 15 16 17 18 19 20 21 22 23 24 25 26 27 28 29 30 31 32 33 34 35 36 37 38 39 40 41 42 43 44 45 46 47 48 49 50

000
ASUS43 KOAX 030002
RWRNE
WEATHER ROUNDUP FOR NEBRASKA
NATIONAL WEATHER SERVICE OMAHA NE
700 PM CDT TUE JUN 02 2015

NOTES: SATELLITE DATA IS BEING USED TO AUGMENT CLOUD COVER ABOVE
       12000 FEET.
       "FAIR" INDICATES FEW OR NO CLOUDS BELOW 12,000 FEET WITH NO
       SIGNIFICANT WEATHER AND/OR OBSTRUCTIONS TO VISIBILITY.

  * THESE STATIONS DO NOT REPORT WEATHER SUCH AS RAIN...SNOW OR FOG.

NEZ001>004-019>022-054>056-030100-
NEBRASKA PANHANDLE

CITY           SKY/WX    TMP DP  RH WIND       PRES   REMARKS
SCOTTSBLUFF    PTSUNNY   78  56  46 N29G41    29.80S
6HR MIN TEMP:  77; 6HR MAX TEMP:  88;

ALLIANCE       PTSUNNY   75  64  68 E3        29.83R
6HR MIN TEMP:  74; 6HR MAX TEMP:  82;

CHADRON        TSTM      65  54  67 SW15G23   29.94R
6HR MIN TEMP:  65; 6HR MAX TEMP:  83; 6HR PCP:  0.04;

KIMBALL          N/A    N/A N/A N/A MISG        N/A
SIDNEY         SUNNY     82  59  45 SE10      29.83F
6HR MIN TEMP:  75; 6HR MAX TEMP:  84;

$$

NEZ057>060-069>072-079>082-030100-
SOUTHWEST NEBRASKA

CITY           SKY/WX    TMP DP  RH WIND       PRES   REMARKS
NORTH PLATTE   SUNNY     82  65  56 SE10      29.78F
6HR MIN TEMP:  80; 6HR MAX TEMP:  85;

IMPERIAL       SUNNY     84  64  50 SE13      29.77F
6HR MIN TEMP:  79; 6HR MAX TEMP:  85;

LEXINGTON      MOSUNNY   82  66  58 S15       29.80F
MCCOOK         SUNNY     86  64  47 SE15G24   29.76F
6HR MIN TEMP:  81; 6HR MAX TEMP:  88;

$$

NEZ005>010-023>029-035>040-094-030100-
NORTH CENTRAL NEBRASKA

CITY           SKY/WX    TMP DP  RH WIND       PRES   REMARKS
VALENTINE      MOSUNNY   85  59  41 SE12      29.77R
6HR MIN TEMP:  84; 6HR MAX TEMP:  89;

AINSWORTH      MOSUNNY   81  66  60 S13       29.80R
BROKEN BOW     MOSUNNY   80  65  59 S16G23    29.81F
6HR MIN TEMP:  73; 6HR MAX TEMP:  80;

O`NEILL        MOSUNNY   77  65  66 S13G20    29.82S
ORD            MOSUNNY   80  63  55 S8G18     29.79F
6HR MIN TEMP:  68; 6HR MAX TEMP:  80;

$$

NEZ041-046>049-061>064-073>077-083>087-030100-
SOUTH CENTRAL NEBRASKA

CITY           SKY/WX    TMP DP  RH WIND       PRES   REMARKS
GRAND ISLAND   MOSUNNY   83  65  54 S17G24    29.82F
6HR MIN TEMP:  67; 6HR MAX TEMP:  84;

HASTINGS       MOSUNNY   82  64  54 S14       29.82S
6HR MIN TEMP:  69; 6HR MAX TEMP:  84;

KEARNEY *      MOSUNNY   81  64  57 S17       29.81F
$$

NEZ011>018-030>034-042>045-030100-
NORTHEAST NEBRASKA

CITY           SKY/WX    TMP DP  RH WIND       PRES   REMARKS
NORFOLK        SUNNY     77  63  61 S16       29.84F
6HR MIN TEMP:  70; 6HR MAX TEMP:  79;

COLUMBUS *     MOSUNNY   79  63  57 SE14G22   29.86S
FREMONT        PTSUNNY   75  60  60 SE18G26   29.88F
TEKAMAH        SUNNY     76  60  57 S25G31    29.88S
6HR MIN TEMP:  73; 6HR MAX TEMP:  82;

$$

NEZ050>053-065>068-078-088>093-030100-
SOUTHEAST NEBRASKA

CITY           SKY/WX    TMP DP  RH WIND       PRES   REMARKS
LINCOLN        MOSUNNY   76  64  66 SE18G24   29.88F
6HR MIN TEMP:  70; 6HR MAX TEMP:  79;

OMAHA EPPLEY   PTSUNNY   71  60  68 SE22G31   29.91S
6HR MIN TEMP:  71; 6HR MAX TEMP:  77;

FALLS CITY     PTSUNNY   72  60  66 SE16      29.93R
6HR MIN TEMP:  70; 6HR MAX TEMP:  75;

PLATTSMOUTH    RAIN      69  59  72 SE14G21   29.92S
$$

NEZ044-045-051>053-067-030100-
OMAHA AREA

CITY           SKY/WX    TMP DP  RH WIND       PRES   REMARKS
OMAHA EPPLEY   PTSUNNY   71  60  68 SE22G31   29.91S
6HR MIN TEMP:  71; 6HR MAX TEMP:  77;

FREMONT        PTSUNNY   75  60  60 SE18G26   29.88F
OFFUTT AFB     MOSUNNY   71  61  70 SE15      29.90S
PLATTSMOUTH    RAIN      69  59  72 SE14G21   29.92S
$$



USA.gov is the U.S. government's official web portal to all federal, state and local government web resources and services.